Custer, SD

8:50 PM MST on December 12, 2017 (GMT -0700)
Custer County

Weather History for KCUT - February, 2013

Change the Weather History Date:

Friday, February 1, 2013

  Actual Average Record
Temperature  
Mean Temperature 30 °F 24 °F  
Max Temperature 36 °F 35 °F 66 °F (1992)
Min Temperature 24 °F 14 °F -25 °F (1989)
Degree Days  
Heating Degree Days 35 41  
Month to date heating degree days 35 41  
Since 1 July heating degree days 4444 4776  
Cooling Degree Days 0 0  
Month to date cooling degree days 0 0  
Year to date cooling degree days 0 0  
Moisture  
Dew Point 22 °F    
Average Humidity 74    
Maximum Humidity 92    
Minimum Humidity 56    
Precipitation  
Precipitation 0.01 in 0.02 in 0.25 in (1989)
Month to date precipitation 0.01 0.02  
Year to date precipitation 0.81 0.35  
Sea Level Pressure  
Sea Level Pressure 30.01 in    
Wind  
Wind Speed 11 mph (West)    
Max Wind Speed 25 mph    
Max Gust Speed 36 mph    
Visibility 8 miles    
Events Snow    
T = Trace of Precipitation, MM = Missing Value Source: NWS Daily Summary

Daily Weather History Graph

Daily Weather History Graph

Search for Another Location

Airport or City:

Trip Planner

Search our weather history database for the weather conditions in past years. The results will help you decide how hot, cold, wet, or windy it might be!

Date:

Astronomy

Feb. 01, 2013 Rise Set
Actual Time 7:10 AM MST 5:05 PM MST
Civil Twilight 6:40 AM MST 5:36 PM MST
Nautical Twilight 6:06 AM MST 6:10 PM MST
Astronomical Twilight 5:32 AM MST 6:44 PM MST
Moon 11:30 PM MST (2/1) 9:32 AM MST (2/1)
Length of Visible Light 10h 56m
Length of Day
9h 55m
Waning Gibbous, 69% of the Moon is Illuminated
Feb 1
Waning Gibbous
Feb 3
Last Quarter
Feb 10
New
Feb 17
First Quarter
Feb 25
Full

Hourly Weather History & Observations

Time (MST) Temp. Windchill Dew Point Humidity Pressure Visibility Wind Dir Wind Speed Gust Speed Precip Events Conditions
12:04 AM 24.8 °F 13.4 °F 19.4 °F 80% 29.95 in 10.0 mi West 12.7 mph - N/A   Overcast
12:31 AM 26.6 °F 15.7 °F 21.2 °F 80% 29.95 in 10.0 mi West 12.7 mph - 0.00 in Snow Light Snow
12:53 AM 26.1 °F 15.0 °F 21.9 °F 84% 30.09 in 9.0 mi West 12.7 mph - 0.00 in Snow Light Snow
1:22 AM 26.6 °F 15.7 °F 21.2 °F 80% 29.94 in 4.0 mi West 12.7 mph - 0.00 in Snow Light Snow
1:53 AM 26.1 °F 15.0 °F 21.9 °F 84% 30.07 in 9.0 mi West 12.7 mph - 0.00 in Snow Light Snow
2:50 AM 26.6 °F 19.1 °F 23.0 °F 86% 29.94 in 10.0 mi WSW 6.9 mph - 0.00 in   Mostly Cloudy
2:53 AM 26.1 °F 17.6 °F 23.0 °F 88% 30.08 in 10.0 mi WSW 8.1 mph - 0.00 in   Mostly Cloudy
3:53 AM 28.0 °F 19.3 °F 24.1 °F 85% 30.06 in 10.0 mi WSW 9.2 mph 16.1 mph 0.00 in   Overcast
4:35 AM 26.6 °F 19.1 °F 24.8 °F 93% 29.92 in 3.0 mi WSW 6.9 mph - 0.00 in Snow Light Snow
4:53 AM 26.1 °F 17.6 °F 24.1 °F 92% 30.09 in 3.0 mi WSW 8.1 mph - 0.01 in Snow Light Snow
5:14 AM 26.6 °F 16.2 °F 23.0 °F 86% 29.91 in 2.0 mi WSW 11.5 mph - 0.00 in Snow Light Snow
5:28 AM 24.8 °F 13.4 °F 23.0 °F 93% 29.90 in 4.0 mi WSW 12.7 mph - 0.00 in Snow Light Snow
5:53 AM 25.0 °F 14.8 °F 23.0 °F 92% 30.08 in 4.0 mi WSW 10.4 mph 18.4 mph 0.00 in Snow Light Snow
6:26 AM 24.8 °F 15.3 °F 23.0 °F 93% 29.90 in 7.0 mi WSW 9.2 mph 16.1 mph 0.00 in Snow Light Snow
6:33 AM 26.6 °F 17.5 °F 23.0 °F 86% 29.90 in 2.5 mi WSW 9.2 mph - 0.00 in Snow Light Snow
6:53 AM 26.1 °F 16.8 °F 24.1 °F 92% 30.08 in 2.5 mi WSW 9.2 mph - 0.00 in Snow Light Snow
7:00 AM 26.6 °F 17.5 °F 24.8 °F 93% 29.90 in 4.0 mi WSW 9.2 mph 17.3 mph 0.00 in Snow Light Snow
7:19 AM 26.6 °F 17.5 °F 24.8 °F 93% 29.90 in 9.0 mi WSW 9.2 mph - 0.00 in   Scattered Clouds
7:53 AM 26.1 °F 16.2 °F 24.1 °F 92% 30.06 in 10.0 mi West 10.4 mph 17.3 mph 0.00 in   Partly Cloudy
8:15 AM 28.4 °F 17.5 °F 24.8 °F 86% 29.90 in 10.0 mi WNW 13.8 mph - N/A   Mostly Cloudy
8:25 AM 30.2 °F 20.2 °F 24.8 °F 80% 29.90 in 10.0 mi WNW 12.7 mph - N/A   Scattered Clouds
8:53 AM 30.0 °F 20.0 °F 24.1 °F 79% 30.03 in 10.0 mi WNW 12.7 mph 19.6 mph N/A   Partly Cloudy
9:53 AM 34.0 °F 23.4 °F 24.1 °F 67% 29.99 in 10.0 mi NW 17.3 mph 29.9 mph N/A   Clear
10:53 AM 35.1 °F 24.1 °F 24.1 °F 64% 30.00 in 10.0 mi West 19.6 mph 34.5 mph N/A   Clear
11:26 AM 33.8 °F 24.3 °F 24.8 °F 70% 29.91 in 10.0 mi WNW 13.8 mph 33.4 mph N/A   Mostly Cloudy
11:53 AM 34.0 °F 25.5 °F 24.1 °F 67% 29.99 in 10.0 mi WNW 11.5 mph 31.1 mph N/A   Mostly Cloudy
12:53 PM 34.0 °F 23.8 °F 23.0 °F 64% 29.98 in 10.0 mi NW 16.1 mph 26.5 mph N/A   Mostly Cloudy
1:12 PM 33.8 °F 24.8 °F 23.0 °F 65% 29.91 in 10.0 mi NW 12.7 mph 27.6 mph N/A   Scattered Clouds
1:53 PM 36.0 °F 29.0 °F 23.0 °F 59% 29.98 in 10.0 mi NW 9.2 mph 25.3 mph N/A   Mostly Cloudy
2:53 PM 34.0 °F 26.0 °F 21.0 °F 59% 30.00 in 10.0 mi NW 10.4 mph 21.9 mph N/A   Mostly Cloudy
3:53 PM 34.0 °F 26.0 °F 19.9 °F 56% 30.02 in 10.0 mi North 10.4 mph 23.0 mph N/A   Overcast
4:53 PM 30.9 °F 22.2 °F 19.9 °F 64% 30.05 in 10.0 mi West 10.4 mph 19.6 mph N/A   Mostly Cloudy
5:26 PM 30.2 °F 21.9 °F 21.2 °F 69% 29.97 in 10.0 mi West 9.2 mph - N/A   Overcast
5:53 PM 30.0 °F 22.4 °F 21.0 °F 69% 30.08 in 10.0 mi West 8.1 mph 16.1 mph N/A   Mostly Cloudy
6:53 PM 28.0 °F 17.5 °F 19.9 °F 72% 30.10 in 10.0 mi West 12.7 mph - N/A   Clear
7:53 PM 27.0 °F 19.5 °F 19.9 °F 75% 30.12 in 10.0 mi WSW 6.9 mph - N/A   Overcast
8:53 PM 26.1 °F 20.5 °F 19.0 °F 75% 30.12 in 10.0 mi WSW 4.6 mph - N/A   Scattered Clouds
9:53 PM 27.0 °F 16.1 °F 18.0 °F 69% 30.10 in 10.0 mi West 12.7 mph - N/A   Mostly Cloudy
10:53 PM 27.0 °F 15.6 °F 21.0 °F 78% 30.11 in 10.0 mi West 13.8 mph - N/A   Scattered Clouds
11:14 PM 26.6 °F 15.7 °F 21.2 °F 80% 30.04 in 8.0 mi West 12.7 mph 19.6 mph 0.00 in Snow Light Snow
11:22 PM 26.6 °F 15.7 °F 21.2 °F 80% 30.04 in 9.0 mi West 12.7 mph 17.3 mph 0.00 in   Scattered Clouds
11:37 PM 26.6 °F 15.7 °F 21.2 °F 80% 30.05 in 2.5 mi West 12.7 mph 18.4 mph 0.00 in Snow Light Snow
11:44 PM 26.6 °F 15.2 °F 21.2 °F 80% 30.05 in 4.0 mi West 13.8 mph - 0.00 in Snow Light Snow
11:53 PM 28.0 °F 17.0 °F 23.0 °F 81% 30.13 in 4.0 mi WNW 13.8 mph 23.0 mph 0.00 in Snow Light Snow